Regional Weather Roundup
Issued by NWS Upton, NY

Current Version | Previous Version | Graphics & Text | Print | Product List | Glossary Off
Versions: 1 2 3 4 5 6 7 8 9 10 11 12 13 14 15 16 17 18 19 20 21 22 23 24 25 26 27 28 29 30 31 32 33 34 35 36 37 38 39 40 41 42 43 44 45 46 47 48 49 50

000
ASUS41 KOKX 291104
RWROKX

REGIONAL WEATHER ROUNDUP
NATIONAL WEATHER SERVICE NEW YORK NY
700 AM EDT FRI APR 29 2016

NOTE: "FAIR" INDICATES FEW OR NO CLOUDS BELOW 12,000 FEET WITH NO
SIGNIFICANT WEATHER AND/OR OBSTRUCTIONS TO VISIBILITY.

NYZ071-072-176-178-NJZ106-104-291200-
NEW YORK CITY METRO AREA


CITY           SKY/WX    TMP DP  RH WIND       PRES   REMARKS
CENTRAL PARK   CLOUDY    50  32  50 VRB6      30.11R
LAGUARDIA APRT CLOUDY    50  33  52 E9        30.09R
KENNEDY INTL   CLOUDY    49  36  61 E9        30.10R
NEWARK/LIBERTY CLOUDY    51  31  46 E7        30.08R
BRNX BOT. GARD   N/A     48  34  57 NE3       30.09S
TETERBORO      CLOUDY    50  32  50 NE7       30.08R
$$

NYZ177-179-078>081-291200-
LONG ISLAND NEW YORK

CITY           SKY/WX    TMP DP  RH WIND       PRES   REMARKS
FARMINGDALE    CLOUDY    48  37  65 E10       30.09R
ISLIP          CLOUDY    47  37  68 E8        30.09S
SHIRLEY        CLOUDY    47  37  68 VRB5      30.11R
RIVERHEAD        N/A     46  39  76 E6        30.11R
WESTHAMPTON    CLOUDY    44  36  73 VRB6      30.12R
EAST HAMPTON   CLOUDY    45  35  67 E6        30.12R
MONTAUK POINT    N/A     46  34  62 E8G17     30.14R
$$

NYZ052-065-067-291200-
HUDSON VALLEY

CITY           SKY/WX    TMP DP  RH WIND       PRES   REMARKS
WHITE PLAINS   PTSUNNY   46  37  71 E7        30.09R
NEWBURGH       CLOUDY    45  36  70 E7        30.10R
MONTGOMERY     CLOUDY    44  32  62 NE7       30.09R
POUGHKEEPSIE   CLOUDY    46  28  49 N3        30.10R
ALBANY         CLOUDY    39  21  48 CALM      30.13R
$$

NJZ001-105-106-008-010-013-015-019>022-104-291200-
NEW JERSEY

CITY           SKY/WX    TMP DP  RH WIND       PRES   REMARKS
NEWARK/LIBERTY CLOUDY    51  31  46 E7        30.08R
TETERBORO      CLOUDY    50  32  50 NE7       30.08R
CALDWELL       CLOUDY    49  34  56 E7        30.09R
MORRISTOWN     CLOUDY    46  43  87 NE6       30.08R
SOMERVILLE     CLOUDY    47  41  80 CALM      30.06R
SUSSEX         CLOUDY    47  39  74 NE5       30.09R
ANDOVER          N/A     47  39  74 NE3       30.08R
TRENTON        CLOUDY    46  42  86 NE5       30.07R
MILLVILLE      CLOUDY    46  44  93 NE7       30.04R
ATLANTIC CITY  CLOUDY    47  44  90 N7        30.04R
WRIGHTSTOWN    CLOUDY    46  43  91 NE6       30.04R
TOMS RIVER     CLOUDY    46  41  81 NE7       30.07R
BELMAR         CLOUDY    47  41  80 E10       30.08R
$$

PAZ047>061-062-071-291200-
EASTERN PENNSYLVANIA

CITY           SKY/WX    TMP DP  RH WIND       PRES   REMARKS
PHILADELPHIA   CLOUDY    47  41  80 NE9       30.07R
ALLENTOWN      CLOUDY    46  42  86 CALM      30.08R FOG
SCRANTON       CLOUDY    46  43  89 CALM      30.04R
$$

CTZ002-004>006-009-010-012-RIZ004-006-007-MAZ004-011-015-291200-
SOUTHERN NEW ENGLAND
 IN CT

CITY           SKY/WX    TMP DP  RH WIND       PRES   REMARKS
BRADLEY INTL   CLOUDY    45  34  65 SE5       30.13R
HARTFORD       CLOUDY    46  37  71 CALM      30.14R
DANBURY        CLOUDY    44  37  76 NE6       30.12R
WTRBRY/OXFORD  NOT AVBL
BRIDGEPORT     CLOUDY    47  36  65 E14       30.11R
MERIDEN        CLOUDY    45  35  68 NE5       30.13R
NEW HAVEN      CLOUDY    46  33  60 E8        30.12R
CHESTER        CLOUDY    43  36  75 E6        30.12R
GROTON         CLOUDY    44  40  85 E8        30.13R
WILLIMANTIC    CLOUDY    46  37  71 CALM      30.14R

 IN RI

CITY           SKY/WX    TMP DP  RH WIND       PRES   REMARKS
PROVIDENCE     CLOUDY    45  36  70 SE6       30.16R
BLOCK ISLAND   CLOUDY    44  35  70 E13       30.15R
WESTERLY       CLOUDY    43  37  79 E3        30.14R

 IN MA

CITY           SKY/WX    TMP DP  RH WIND       PRES   REMARKS
BOSTON         CLOUDY    46  38  73 E9        30.17R
WORCESTER      MOSUNNY   38  32  79 N3        30.13R
WESTFIELD      CLOUDY    44  25  47 N8        30.14R
PROVINCETOWN   CLOUDY    44  34  67 E6        30.19R
NANTUCKET      LGT RAIN  44  35  70 E10       30.16R
$$

ANZ330-335-338-340-345-350-353-355-291200-
COASTAL MARINE OBSERVATIONS


STATION/POSITION TIME  SKY/WX   TEMP    WIND        PRES    VSBY  WAVE
                                AIR SEA DIR/SP/G                  HT/PER
                 (UTC)          (F)     (DEG/KT/KT) (MB)    (MI)  (FT/S)
NY HARB ENTRANCE 0950            49 51   70/ 16/ 17 1017.2          3/ 6
20S FIRE ISLAND  0950            47 49   70/ 14/ 17 1017.7          3/ 5
GREAT SOUTH BAY  1000            48 57   80/ 17/ 19   N/A
23 SSW MONTAUK P 1050            46 46   80/ 19/ 23 1019.0          3/ 4
15 E BARNEGAT LI 1022               51                N/A           4/ 6
HUDSON CANYON    0950            50 49              1016.5          4/ 5
KINGS POINT      1000            48 53              1018.0
EXECUTION ROCKS  NOT AVBL
CENTRAL LI SOUND 1015            46      90/ 16/ 19   N/A           2/ 3
EASTERN LI SOUND 1000            45 47   70/ 12/ 16   N/A
ROBBINS REEF     1000            50      90/ 11/ 13 1017.4
$$


>>>>>>>>>>>>>>>>>>>>>>>>>>>> KEY <<<<<<<<<<<<<<<<<<<<<<<<<<<
>                                                          <
>     SKY/WX - SKY CONDITION/PRESENT WEATHER               <
>     TMP    - TEMPERATURE IN FAHRENHEIT                   <
>     DP     - DEWPOINT IN FAHRENHEIT                      <
>     RH     - RELATIVE HUMIDITY IN PERCENT                <
>     WIND   - DIRECTION AND SPEED IN MPH                  <
>     PRES   - MEAN SEA LEVEL PRESSURE IN INCHES OF HG     <
>     WCI    - WIND CHILL INDEX                            <
>     VSB    - VISIBILITY IN MILES                         <
>     HX     - HEAT INDEX                                  <
>     TC     - TEMPERATURE IN CELSIUS                      <
>     VRB    - VARIABLE WIND DIRECTION                     <
>                                                          <
>>>>>>>>>>>>>>>>>>>>>>>>>>>> KEY <<<<<<<<<<<<<<<<<<<<<<<<<<<





USA.gov is the U.S. government's official web portal to all federal, state and local government web resources and services.